• In Russia
  • List of Countries
  • For 7 days
  • Water Temperature
  • Weather Map
  • Weather Widgets
  • user-avatar
    Login

    Hourly Weather Etchmiadzin

    Today, 7 April, Tuesday

    Time Temperature Precipitation Wind Pressure Humidity
    00:00 +10°C° 0.1 mm 0 mps 686 mmHg 84%
    01:00 +10°C° 0.1 mm 0 mps 686 mmHg 84%
    02:00 +11°C° 0.1 mm 1 mps 686 mmHg 84%
    03:00 +11°C° 0 mm 1 mps 686 mmHg 85%
    04:00 +10°C° 0.1 mm 2 mps 686 mmHg 82%
    05:00 +10°C° 0.1 mm 2 mps 686 mmHg 80%
    06:00 +10°C° 0.1 mm 3 mps 686 mmHg 78%
    07:00 +10°C° 0.3 mm 3 mps 687 mmHg 74%
    08:00 +10°C° 0.3 mm 3 mps 687 mmHg 71%
    09:00 +10°C° 0 mm 3 mps 687 mmHg 66%
    10:00 +10°C° 0 mm 3 mps 688 mmHg 62%
    11:00 +11°C° 0 mm 3 mps 688 mmHg 58%
    12:00 +12°C° 0 mm 3 mps 688 mmHg 55%
    13:00 +12°C° 0 mm 3 mps 688 mmHg 53%
    14:00 +13°C° 0 mm 3 mps 688 mmHg 51%
    15:00 +13°C° 0 mm 3 mps 688 mmHg 49%
    16:00 +12°C° 0 mm 4 mps 688 mmHg 53%
    17:00 +9°C° 0 mm 5 mps 688 mmHg 57%
    18:00 +8°C° 0 mm 5 mps 688 mmHg 61%
    19:00 +7°C° 0 mm 5 mps 688 mmHg 62%
    20:00 +6°C° 0 mm 4 mps 689 mmHg 63%
    21:00 +6°C° 0 mm 4 mps 689 mmHg 63%
    22:00 +5°C° 0 mm 3 mps 690 mmHg 62%
    23:00 +5°C° 0 mm 3 mps 690 mmHg 60%

    Tomorrow, 8 April, Wednesday

    Time Temperature Precipitation Wind Pressure Humidity
    00:00 +4°C° 0 mm 3 mps 690 mmHg 58%
    01:00 +5°C° 0 mm 2 mps 690 mmHg 57%
    02:00 +5°C° 0 mm 2 mps 691 mmHg 57%
    03:00 +4°C° 0 mm 2 mps 691 mmHg 56%
    04:00 +4°C° 0 mm 2 mps 691 mmHg 57%
    05:00 +4°C° 0 mm 2 mps 691 mmHg 58%
    06:00 +4°C° 0 mm 1 mps 692 mmHg 60%
    07:00 +6°C° 0 mm 1 mps 692 mmHg 55%
    08:00 +7°C° 0 mm 1 mps 692 mmHg 51%
    09:00 +8°C° 0 mm 1 mps 692 mmHg 46%
    10:00 +8°C° 0 mm 2 mps 692 mmHg 44%
    11:00 +9°C° 0 mm 2 mps 692 mmHg 41%
    12:00 +12°C° 0 mm 2 mps 692 mmHg 38%
    13:00 +11°C° 0 mm 3 mps 691 mmHg 37%
    14:00 +12°C° 0 mm 3 mps 691 mmHg 36%
    15:00 +13°C° 0 mm 3 mps 691 mmHg 34%
    16:00 +12°C° 0 mm 3 mps 691 mmHg 37%
    17:00 +11°C° 0 mm 3 mps 690 mmHg 40%
    18:00 +11°C° 0 mm 3 mps 690 mmHg 43%
    19:00 +9°C° 0 mm 3 mps 691 mmHg 46%
    20:00 +7°C° 0 mm 4 mps 691 mmHg 49%
    21:00 +6°C° 0 mm 4 mps 691 mmHg 52%
    22:00 +7°C° 0 mm 3 mps 691 mmHg 53%
    23:00 +5°C° 0 mm 3 mps 691 mmHg 54%

    Day after tomorrow, 9 April, Thursday

    Time Temperature Precipitation Wind Pressure Humidity
    00:00 +6°C° 0 mm 2 mps 690 mmHg 55%
    01:00 +5°C° 0 mm 2 mps 690 mmHg 56%
    02:00 +6°C° 0 mm 1 mps 689 mmHg 58%
    03:00 +5°C° 0 mm 1 mps 688 mmHg 60%
    04:00 +5°C° 0 mm 1 mps 688 mmHg 61%
    05:00 +5°C° 0 mm 1 mps 687 mmHg 61%
    06:00 +5°C° 0 mm 1 mps 687 mmHg 62%
    07:00 +6°C° 0 mm 1 mps 687 mmHg 57%
    08:00 +8°C° 0 mm 1 mps 686 mmHg 52%
    09:00 +9°C° 0 mm 1 mps 686 mmHg 47%
    10:00 +9°C° 0 mm 2 mps 685 mmHg 45%
    11:00 +10°C° 0 mm 2 mps 685 mmHg 42%
    12:00 +13°C° 0 mm 2 mps 684 mmHg 39%
    13:00 +14°C° 0 mm 2 mps 684 mmHg 38%
    14:00 +15°C° 0 mm 2 mps 683 mmHg 37%
    15:00 +15°C° 0 mm 2 mps 683 mmHg 36%
    16:00 +15°C° 0 mm 2 mps 683 mmHg 38%
    17:00 +15°C° 0 mm 2 mps 683 mmHg 40%
    18:00 +15°C° 0 mm 1 mps 683 mmHg 42%
    19:00 +14°C° 0 mm 1 mps 683 mmHg 45%
    20:00 +13°C° 0 mm 1 mps 683 mmHg 49%
    21:00 +11°C° 0 mm 1 mps 683 mmHg 52%
    22:00 +11°C° 0 mm 1 mps 683 mmHg 54%
    23:00 +11°C° 0 mm 1 mps 683 mmHg 55%

    10 April, Friday

    Time Temperature Precipitation Wind Pressure Humidity
    00:00 +10°C° 0 mm 1 mps 683 mmHg 57%
    01:00 +10°C° 0 mm 1 mps 682 mmHg 58%
    02:00 +9°C° 0 mm 1 mps 682 mmHg 59%
    03:00 +9°C° 0 mm 1 mps 681 mmHg 61%
    04:00 +9°C° 0 mm 1 mps 681 mmHg 61%
    05:00 +9°C° 0 mm 1 mps 681 mmHg 62%
    06:00 +9°C° 0 mm 1 mps 681 mmHg 63%
    07:00 +10°C° 0 mm 1 mps 681 mmHg 58%
    08:00 +12°C° 0 mm 1 mps 681 mmHg 52%
    09:00 +14°C° 0 mm 1 mps 681 mmHg 46%
    10:00 +15°C° 0 mm 1 mps 681 mmHg 45%
    11:00 +16°C° 0 mm 2 mps 681 mmHg 43%
    12:00 +17°C° 0 mm 2 mps 681 mmHg 41%
    13:00 +18°C° 0 mm 2 mps 681 mmHg 39%
    14:00 +18°C° 0 mm 2 mps 680 mmHg 37%
    15:00 +19°C° 0 mm 2 mps 680 mmHg 35%
    16:00 +19°C° 0 mm 2 mps 680 mmHg 38%
    17:00 +18°C° 0 mm 2 mps 680 mmHg 41%
    18:00 +18°C° 0 mm 2 mps 680 mmHg 44%
    19:00 +16°C° 0.2 mm 3 mps 681 mmHg 49%
    20:00 +14°C° 0.2 mm 3 mps 681 mmHg 53%
    21:00 +12°C° 0.2 mm 3 mps 681 mmHg 58%
    22:00 +12°C° 0.3 mm 3 mps 681 mmHg 60%
    23:00 +12°C° 0.3 mm 3 mps 681 mmHg 63%

    11 April, Saturday

    Time Temperature Precipitation Wind Pressure Humidity
    00:00 +11°C° 0.3 mm 3 mps 681 mmHg 65%
    01:00 +11°C° 0.7 mm 3 mps 680 mmHg 69%
    02:00 +10°C° 0.7 mm 3 mps 680 mmHg 72%
    03:00 +8°C° 0.7 mm 4 mps 680 mmHg 76%
    04:00 +9°C° 0.3 mm 3 mps 680 mmHg 76%
    05:00 +9°C° 0.3 mm 2 mps 680 mmHg 76%
    06:00 +10°C° 0.3 mm 1 mps 680 mmHg 76%
    07:00 +11°C° 0.1 mm 1 mps 680 mmHg 73%
    08:00 +11°C° 0.1 mm 1 mps 680 mmHg 71%
    09:00 +12°C° 0.1 mm 1 mps 680 mmHg 69%
    10:00 +12°C° 0.1 mm 1 mps 680 mmHg 64%
    11:00 +13°C° 0.1 mm 1 mps 680 mmHg 60%
    12:00 +14°C° 0.1 mm 1 mps 680 mmHg 55%
    13:00 +15°C° 0.2 mm 2 mps 680 mmHg 53%
    14:00 +16°C° 0.2 mm 2 mps 680 mmHg 50%
    15:00 +16°C° 0.2 mm 3 mps 681 mmHg 47%
    16:00 +14°C° 0.1 mm 4 mps 681 mmHg 49%
    17:00 +14°C° 0.1 mm 4 mps 681 mmHg 50%
    18:00 +13°C° 0.1 mm 5 mps 681 mmHg 51%
    19:00 +12°C° 0 mm 4 mps 681 mmHg 52%
    20:00 +11°C° 0 mm 4 mps 682 mmHg 53%
    21:00 +10°C° 0 mm 3 mps 683 mmHg 54%
    22:00 +10°C° 0 mm 3 mps 683 mmHg 54%
    23:00 +8°C° 0 mm 4 mps 683 mmHg 54%

    12 April, Sunday

    Time Temperature Precipitation Wind Pressure Humidity
    00:00 +7°C° 0 mm 4 mps 684 mmHg 54%
    01:00 +7°C° 0 mm 4 mps 684 mmHg 54%
    02:00 +6°C° 0 mm 4 mps 684 mmHg 53%
    03:00 +6°C° 0 mm 4 mps 684 mmHg 53%
    04:00 +5°C° 0 mm 3 mps 684 mmHg 53%
    05:00 +5°C° 0 mm 3 mps 685 mmHg 54%
    06:00 +5°C° 0 mm 3 mps 685 mmHg 54%
    07:00 +7°C° 0 mm 3 mps 685 mmHg 50%
    08:00 +9°C° 0 mm 3 mps 685 mmHg 45%
    09:00 +10°C° 0 mm 3 mps 685 mmHg 41%
    10:00 +11°C° 0 mm 3 mps 685 mmHg 38%
    11:00 +14°C° 0 mm 2 mps 685 mmHg 35%
    12:00 +15°C° 0 mm 2 mps 685 mmHg 32%
    13:00 +15°C° 0 mm 2 mps 685 mmHg 30%
    14:00 +16°C° 0 mm 1 mps 685 mmHg 28%
    15:00 +18°C° 0 mm 1 mps 685 mmHg 26%
    16:00 +16°C° 0 mm 1 mps 685 mmHg 28%
    17:00 +16°C° 0 mm 1 mps 685 mmHg 30%
    18:00 +15°C° 0 mm 0 mps 685 mmHg 31%
    19:00 +14°C° 0 mm 1 mps 686 mmHg 35%
    20:00 +13°C° 0 mm 2 mps 686 mmHg 38%
    21:00 +12°C° 0 mm 2 mps 686 mmHg 41%
    22:00 +10°C° 0 mm 2 mps 687 mmHg 44%
    23:00 +10°C° 0 mm 2 mps 687 mmHg 46%
    Show more